Home > Weather > Valladolid > Past weeks

Flag for Spain Past Weather in Valladolid, Spain — Yesterday and Last 2 Weeks

Now
68 °F

Sunny.


Feels Like: 68 °F
Forecast: 56 / 82 °F
Wind: 1 mph from North

Location: Valladolid / Villanubla

Current Time: Aug 28, 2016 at 11:02:59 AM

Latest Report: Aug 28, 2016 at 10:30 AM


Visibility: 10 mi

Pressure: 30.18 "Hg (27.78 "Hg at 712m altitude)

Humidity: 73%

Dew Point: 59 °F

Location of ValladolidLocation

Past Weather in Valladolid — Graph

°F

Valladolid Temperature Yesterday

Maximum temperature yesterday: 90 °F (at 4:30 PM)
Minimum temperature yesterday: 59 °F (at 7:00 AM)
Average temperature yesterday: 80 °F

High & Low Weather Summary for the Past Weeks

 TemperatureHumidityPressure
High95 °F (Aug 23, 7:00 PM)94% (Aug 18, 8:00 AM)30.30 "Hg (Aug 18, 8:00 AM)
Low52 °F (Aug 18, 8:00 AM)16% (Aug 13, 6:00 PM)29.95 "Hg (Aug 18, 5:00 PM)
Average77 °F39%30.10 "Hg
* Reported Aug 13 10:00 AM — Aug 28 10:00 AM, Valladolid, Weather by CustomWeather, © 2016

Note: Actual official high and low records may vary slightly from our data, if they occured in-between our weather recording intervals... More about our weather records

Advertising

Valladolid Weather History for the Previous 24 Hours

Scroll right to see more
 ConditionsComfort  
Time TempWeatherWind HumidityBarometerVisibility
10:00 AM
Sun, Aug 28
66 °FSunny.1 mph78%30.18 "Hg10 mi
9:30 AM64 °FPassing clouds.7 mph83%30.18 "HgN/A
9:00 AM63 °FPassing clouds.5 mph88%30.15 "HgN/A
8:30 AM59 °FClear.6 mph88%30.15 "Hg10 mi
8:00 AM57 °FClear.8 mph94%30.15 "Hg10 mi
7:30 AM57 °FClear.2 mph88%30.15 "Hg10 mi
7:00 AM57 °FClear.2 mph88%30.15 "Hg10 mi
9:30 PM
Sat, Aug 27
81 °FSunny.6 mph34%30.09 "Hg10 mi
9:00 PM82 °FSunny.6 mph32%30.09 "Hg10 mi
8:30 PM84 °FPassing clouds.7 mph31%30.09 "HgN/A
8:00 PM86 °FPassing clouds.8 mph29%30.09 "HgN/A
7:30 PM88 °FPassing clouds.9 mph25%30.09 "HgN/A
7:00 PM88 °FPassing clouds.10 mph25%30.09 "HgN/A
6:30 PM88 °FPassing clouds.8 mph29%30.09 "HgN/A
6:00 PM90 °FSunny.9 mph26%30.09 "Hg10 mi
5:30 PM88 °FPassing clouds.3 mph31%30.09 "HgN/A
5:00 PM88 °FPassing clouds.10 mph29%30.09 "HgN/A
4:30 PM90 °FSunny.8 mph27%30.09 "Hg10 mi
4:00 PM88 °FPassing clouds.14 mph29%30.12 "HgN/A
3:30 PM88 °FPassing clouds.12 mph29%30.12 "HgN/A
3:00 PM88 °FPassing clouds.12 mph29%30.12 "HgN/A
2:30 PM86 °FPassing clouds.10 mph31%30.12 "HgN/A
2:00 PM86 °FPassing clouds.10 mph31%30.12 "HgN/A
1:30 PM84 °FPassing clouds.12 mph33%30.12 "HgN/A
1:00 PM84 °FPassing clouds.12 mph33%30.12 "HgN/A
12:30 PM82 °FPassing clouds.9 mph35%30.12 "HgN/A
11:30 AM81 °FPassing clouds.5 mph37%30.12 "HgN/A
11:00 AM79 °FPassing clouds.5 mph39%30.12 "HgN/A
Weather by CustomWeather, © 2016

See weather overviewHow to use our weather pages